logo
Search for airport 
image banner adimage banner adimage banner ad
image banner ad

EHKC - K6-Dn (Oil Platform)

Located in , Netherlands

ICAO - , IATA -

Data provided by Airmate  

General information

Coordinates: N53°43'32" E3°48'16"
Elevation is feet MSL.
 
View others Airports in Noord-Holland

Operational data

Special qualification required
Current time UTC:
Current local time:
Weather at : EHKV - K14-Fa-1C (Oil Platform) ( 52 km )
METAR: EHKV 301825Z AUTO 32019KT 9999 FEW005 BKN024 13/12 Q1007
View NOTAMs / SUP AIP / TFR affecting this airport [VIEW]
Communications frequencies: [VIEW]

Runways:

Airport contact information

Address: Netherlands

Satellite view of EHKC